Regional Weather Roundup
Issued by NWS Cleveland, OH

Home | Current Version | Previous Version | Graphics & Text | Print | Product List | Glossary On
Versions: 1 2 3 4 5 6 7 8 9 10 11 12 13 14 15 16 17 18 19 20 21 22 23 24 25 26 27 28 29 30 31 32 33 34 35 36 37 38 39 40 41 42 43 44 45 46 47 48 49 50
144
ASUS41 KCLE 251502
RWRCLE
OHIO REGIONAL WEATHER ROUNDUP
NATIONAL WEATHER SERVICE CLEVELAND, OH
1100 AM EDT SUN JUN 25 2017

NOTE: "FAIR" INDICATES FEW OR NO CLOUDS BELOW 12,000 FEET WITH NO
SIGNIFICANT WEATHER AND/OR OBSTRUCTIONS TO VISIBILITY.

OHZ001>008-015>018-024>027-034-035-043-044-251600-
   NORTHWEST OHIO

CITY           SKY/WX    TMP DP  RH WIND       PRES   REMARKS
DEFIANCE       SUNNY     65  46  50 W14G22    30.08R
FINDLAY        SUNNY     69  46  43 W24       30.07R
TOLEDO EXPRESS SUNNY     66  46  48 W20G25    30.05R
TOLEDO EXEC    SUNNY     69  48  47 W21G26    30.05R
LIMA           SUNNY     67  50  54 W18G24    30.10R
$$

OHZ009>014-019>023-028>033-038-089-251600-
   NORTHEAST OHIO

CITY           SKY/WX    TMP DP  RH WIND       PRES   REMARKS
CLE-HOPKINS    MOSUNNY   74  49  41 SW22      30.05F
CLE-LAKEFRONT  MOSUNNY   73  48  41 SW20G36   30.02F
CUY CO. ARPT   MOSUNNY   73  46  38 W18       30.04F
LORAIN-ELYRIA  MOSUNNY   71  46  40 W22G31    30.04F
ASHTABULA      MOSUNNY   70  53  54 W15       30.04S
AKRON-CANTON   MOSUNNY   72  46  39 W9G20     30.08S
WOOSTER        SUNNY     69  49  48 SW14G24   30.08F
MANSFIELD      PTSUNNY   70  48  45 W16G23    30.08F
YOUNGSTOWN     MOSUNNY   71  49  45 W15       30.06S
$$

OHZ042-051>053-060>062-070>072-077>081-251600-
  SOUTHWEST OHIO

CITY           SKY/WX    TMP DP  RH WIND       PRES   REMARKS
CINC-COVINGTON SUNNY     72  50  45 W15       30.17R
CINC-LUNKEN    SUNNY     74  51  44 W15G23    30.16S
HAMILTON       SUNNY     74  50  42 W12G22    30.16S
DAYTON         SUNNY     71  47  42 W23G29    30.14R
WRIGHT-PAT AFB SUNNY     72  47  41 W22G29    30.12S
DAYTON GENERAL SUNNY     72  47  40 W17G25    30.14S
WILMINGTON     SUNNY     72  51  47 W15G24    30.14S
$$

OHZ036-037-039>041-045>050-054>059-063>069-073>076-082>088-251600-
  CENTRAL AND SOUTHEAST OHIO

CITY           SKY/WX    TMP DP  RH WIND       PRES   REMARKS
COLUMBUS       SUNNY     73  50  44 W12G23    30.11F
OSU AIRPORT    SUNNY     72  48  42 W21G29    30.11S
BOLTON FIELD   SUNNY     72  48  43 W13G22    30.13S
RICKENBACK AFB SUNNY     72  50  46 SW12G17   30.12F
NEWARK         SUNNY     74  46  36 SW13      30.12S
MARION         SUNNY     71  46  40 W22G32    30.09S
LANCASTER      SUNNY     70  51  51 W9        30.13F
ZANESVILLE     SUNNY     71  48  43 W10       30.12S
NEW PHILLY     NOT AVBL
$$




USA.gov is the U.S. government's official web portal to all federal, state and local government web resources and services.